sat.trackr.live / text

‹ back to catalog

STARLINK-3500

NORAD 51740 · 2022-016AC

PAYLOAD ACTIVE UNKNOWN

§ Identity

Operator
Country
US
Launch date
2022-02-21
Launch site
AFETR
Launch vehicle
Mass (kg)
RCS (m²)

Purposes: comms

External: N2YO · Heavens-Above · Gunter

§ Orbital elements

Epoch: 2026-05-24T19:20:49.485120Z

Period
95.44 min
Inclination
53.2171°
Eccentricity
0.0001099
Mean motion
15.08837777 rev/d
Perigee alt
539.0 km
Apogee alt
540.5 km
Semi-major
6,917.9 km
B*
-1.0061e-5
RAAN
337.4199°
Arg perigee
90.6113°
Mean anomaly
269.5005°
Rev number
23,505

§ Raw data

STARLINK-35001 51740U 22016AC  26144.80612830 -.00000448  00000+0 -10061-4 0  99922 51740  53.2171 337.4199 0001099  90.6113 269.5005 15.08837777235058

JSON: /api/v1/satellites/51740 · /tle

For live sub-satellite position, see the globe view (requires WebGL).

§ Visibility from observer

Set your observer location to see the next 7 days of passes ≥ 10°. The values pass through the URL so the page stays shareable.

No JS? Fill the form by hand. The geolocation button needs JavaScript.